Location: Newark
(13.8625°N, 100.5144°E)
Time: 14:42:55
(UTC+00:00)

LightSail 2 - Pass Details

Date: 14 May 2021
Orbit: 685 x 700 km, 24.0° (Epoch: 11 June)

Event Time Altitude Azimuth Distance (km) Brightness Sun altitude
Exits shadow 20:13:18 25° 36° (NE) 1,371 7.1 -35.1°
Drops below altitude 10° 20:16:16 10° 68° (ENE) 2,130 8.4 -34.5°
Sets 20:18:57 0° 80° (E) 3,043 9.3 -34.0°
